Home   Weather   Milwaukee   Past weeks

Flag for USA Past Weather in Milwaukee, Wisconsin, USA — Yesterday and Last 2 Weeks

Now
37 °F

Passing clouds.


Feels Like: 31 °F
Forecast: 38 / 53 °F
Wind: 8 mph from Southwest

Location: Milwaukee / Timmerman

Current Time: Apr 28, 2017 at 3:26:12 am

Latest Report: Apr 28, 2017 at 2:55 am


Visibility: 10 mi

Pressure: 29.84 "Hg

Humidity: 70%

Dew Point: 28 °F

Location of MilwaukeeLocation

Past Weather in Milwaukee — Graph

°F

Milwaukee Temperature Yesterday

Maximum temperature yesterday: 54 °F (at 12:15 am)
Minimum temperature yesterday: 39 °F (at 12:45 pm)
Average temperature yesterday: 46 °F

High & Low Weather Summary for the Past Weeks

 TemperatureHumidityPressure
High81 °F (Apr 15, 3:45 pm)94% (Apr 15, 2:35 am)30.42 "Hg (Apr 15, 2:35 am)
Low34 °F (Apr 22, 5:55 am)13% (Apr 22, 4:45 pm)29.28 "Hg (Apr 27, 5:35 am)
Average50 °F66%29.94 "Hg
* Reported Apr 13 2:35 am — Apr 28 2:15 am, Milwaukee, Weather by CustomWeather, © 2017

Note: Actual official high and low records may vary slightly from our data, if they occured in-between our weather recording intervals... More about our weather records

Advertising

Milwaukee Weather History for the Previous 24 Hours

Scroll right to see more
 ConditionsComfort  
Time TempWeatherWind HumidityBarometerVisibility
2:15 am
Fri, Apr 28
37 °FOvercast.9 mph70%29.84 "Hg10 mi
1:55 am37 °FOvercast.15 mph70%29.84 "Hg10 mi
1:35 am37 °FOvercast.13 mph70%29.84 "Hg10 mi
1:15 am37 °FPassing clouds.16 mph70%29.84 "Hg10 mi
12:55 am39 °FOvercast.15 mph70%29.83 "Hg10 mi
12:35 am39 °FOvercast.14 mph70%29.83 "Hg10 mi
12:15 am41 °FOvercast.16 mph66%29.82 "Hg10 mi
11:55 pm
Thu, Apr 27
41 °FOvercast.16 mph66%29.81 "Hg10 mi
11:35 pm41 °FOvercast.14 mph66%29.81 "Hg10 mi
11:15 pm41 °FOvercast.17 mph66%29.80 "Hg10 mi
10:55 pm41 °FOvercast.14 mph70%29.79 "Hg10 mi
10:35 pm41 °FOvercast.9 mph70%29.78 "Hg10 mi
10:15 pm41 °FOvercast.13 mph70%29.78 "Hg10 mi
9:55 pm41 °FOvercast.14 mph70%29.77 "Hg10 mi
9:35 pm41 °FMostly cloudy.12 mph70%29.76 "Hg10 mi
9:15 pm41 °FMostly cloudy.12 mph70%29.76 "Hg10 mi
8:45 pm43 °FMostly cloudy.13 mph66%29.74 "Hg10 mi
7:45 pm43 °FCloudy.13 mph71%29.71 "Hg10 mi
6:45 pm43 °FMostly cloudy.14 mph71%29.68 "Hg10 mi
5:45 pm45 °FMostly cloudy.16 mph71%29.65 "Hg10 mi
4:45 pm43 °FCloudy.9 mph76%29.64 "Hg10 mi
3:45 pm43 °FMostly cloudy.13 mph71%29.63 "Hg10 mi
2:45 pm43 °FOvercast.15 mph71%29.60 "Hg10 mi
1:45 pm41 °FOvercast.18 mph70%29.57 "Hg10 mi
12:45 pm39 °FDrizzle. Mostly cloudy.18 mph81%29.53 "Hg10 mi
11:45 am43 °FMostly cloudy.12 mph76%29.49 "Hg10 mi
10:45 am43 °FOvercast.23 mph81%29.45 "Hg10 mi
9:45 am45 °FMostly cloudy.23 mph81%29.41 "Hg10 mi
8:45 am43 °FLight rain. Fog.17 mph87%29.36 "Hg1 mi
8:10 am45 °FRain. Fog.8 mph87%29.32 "Hg2 mi
7:45 am45 °FLight rain. Low clouds.13 mph87%29.30 "Hg10 mi
7:35 am45 °FRain. Mostly cloudy.13 mph87%29.29 "Hg10 mi
7:15 am45 °FLight rain. Cloudy.12 mph93%29.28 "Hg10 mi
6:55 am45 °FRain. Cloudy.13 mph87%29.29 "Hg5 mi
6:35 am45 °FRain. Cloudy.15 mph93%29.29 "Hg5 mi
6:15 am46 °FHeavy rain. Mostly cloudy.9 mph93%29.30 "Hg5 mi
5:55 am48 °FHeavy rain. Mostly cloudy.10 mph87%29.29 "Hg2 mi
5:35 am48 °FHeavy rain. Low clouds.7 mph94%29.28 "Hg4 mi
4:55 am50 °FLight rain. Low clouds.3 mph88%29.30 "Hg10 mi
4:35 am50 °FRain. Low clouds.6 mph88%29.31 "Hg5 mi
4:15 am52 °FRain. Low clouds.5 mph88%29.32 "Hg5 mi
3:55 am52 °FRain. Mostly cloudy.3 mph88%29.34 "Hg4 mi
3:35 am52 °FLight rain. Low clouds.6 mph88%29.33 "Hg7 mi
3:15 am52 °FRain. Low clouds.3 mph94%29.34 "Hg4 mi
Weather by CustomWeather, © 2017

See weather overviewHow to use our weather pages